Regional Weather Roundup
Issued by NWS Newport/Morehead, NC

Current Version | Previous Version | Graphics & Text | Print | Product List | Glossary Off
Versions: 1 2 3 4 5 6 7 8 9 10 11 12 13 14 15 16 17 18 19 20 21 22 23 24 25 26 27 28 29 30 31 32 33 34 35 36 37 38 39 40 41 42 43 44 45 46 47 48 49 50

513
ASUS42 KMHX 281625
RWRMHX
WEATHER ROUNDUP FOR EASTERN NORTH CAROLINA
NATIONAL WEATHER SERVICE NEWPORT/MOREHEAD CITY NC
1200 PM EDT THU JUL 28 2016

NOTE: "FAIR" INDICATES FEW OR NO CLOUDS BELOW 12,000 FEET
WITH NO SIGNIFICANT WEATHER AND/OR OBSTRUCTIONS TO VISIBILITY

NCZ015>017-031-032-045>047-102-103-281700-
NORTH COAST

CITY           SKY/WX    TMP DP  RH WIND       PRES   REMARKS
EDENTON        SUNNY     92  76  60 SW5       29.92F HX 104
ELIZABETH CITY SUNNY     91  79  67 S8        29.91F HX 107
KITTY HAWK     SUNNY     95  77  56 SW5       29.91F HX 109
MANTEO           N/A     89  81  78 S6        29.92F HX 107

$$

NCZ045>047-081-094-103-104-281700-
CENTRAL COAST

CITY           SKY/WX    TMP DP  RH WIND       PRES   REMARKS
FRISCO         SUNNY     87  81  82 SW9       29.94F HX 104

$$

NCZ095-097-098-100-101-281700-
SOUTHERN COAST

CITY           SKY/WX    TMP DP  RH WIND       PRES   REMARKS
BEAUFORT       SUNNY     88  80  77 SW9         N/A  HX 104
CEDAR ISLAND   NOT AVBL
JACKSONVILLE   MOSUNNY   93  75  55 W8        29.93F HX 104
PINEY ISLAND   NOT AVBL
WILMINGTON     SUNNY     93  73  52 SW9       29.95F HX 102


$$

NCZ011>013-027>030-043-044-078>080-089-090>093-098-281700-
COASTAL PLAIN

CITY           SKY/WX    TMP DP  RH WIND       PRES   REMARKS
AHOSKIE        SUNNY     89  79  74 CALM      29.91F HX 104
CLINTON        SUNNY     94  73  50 SW6       29.93F HX 103
ELIZABETHTOWN  SUNNY     93  70  48 SW8       29.95F
GOLDSBORO      SUNNY     95  74  50 SW12G18   29.91  HX 105
GREENVILLE     SUNNY     95  79  59 SW7       29.93F HX 112
HAVELOCK       SUNNY     93  78  61 W3        29.94F HX 108
KENANSVILLE    NOT AVBL
KINSTON        SUNNY     95  75  52 S9        29.93F HX 107
NEW BERN       SUNNY     93  78  61 S5        29.94F HX 108
RICHLANDS      SUNNY     95  77  55 S9        29.94F HX 109
ROCKY MOUNT    SUNNY     92  79  65 SW8       29.92F HX 108
WASHINGTON     SUNNY     91  79  67 SW6       29.91F HX 107
WHITEVILLE     SUNNY     91  71  52 SW8       29.96F

$$

AMZ130-135-150-152-154-156-158-170-250-252-270-ANZ085-086-088-633-658-670-281700-
MARINE OBSERVATIONS

STATION/POSITION TIME  TEMP    WIND        PRES    WAVE   SWELL
                       AIR SEA DIR/SP/G            HT/PER HT/PER
                 (UTC) (F)     (DEG/KT/KT) (MB)    (FT/S) (FT/S)
CHESAPEAKE LIGHT NOT AVBL
64 E VA BEACH    1550   83 84  220/  8/  8 1013.0    2/ 8   2/ 8
DUCK             1600   83 77  130/  7/  9 1012.4
2 E DUCK         1611      80                N/A     1/ 8
OREGON INLET     1600   85 84  190/  9/ 11 1013.2
13E OREGON INLT  1600      82                N/A     2/ 8   2/ 8
HATTERAS CG      1600   86 83  210/  9/ 12 1013.5
DIAMOND BUOY     1550   85 85  230/ 14/ 16 1013.7    2/ 8   2/ 8
CAPE LOOKOUT     1600   86     240/ 10/ 12 1013.7
BEAUFORT LAB     1600   87 83  210/  6/  8 1013.3
30 SE NEW RVR IN 1608   86 85  240/ 12/ 16 1014.4
30 SE NEW RVR IN 1525      85                N/A     4/ 6
27 SE WRIGHTSVLE 1608   85 85  230/ 10/ 14 1014.9
5 SE WRIGHTSVLE  1608   85 81  210/  4/  8 1015.3
225 S CAPE HAT   1550   83 85  250/  8/ 10 1016.7    3/ 6   3/ 6
41 SE CHARLESTON 1550   85 86  260/ 10/ 12 1016.1    4/ 6   3/ 6

$$




USA.gov is the U.S. government's official web portal to all federal, state and local government web resources and services.